When you browse on this site, cookies collect data to enhance your experience and personalize the content and advertising you see.
Visit our Privacy Policy to learn more. By continuing to use the site, you agree to this use of cookies and data.
  • Em Portugal
  • Lista de países
  • Para 7 dias
  • Temperatura da água
  • Mapas de satélite
  • Mapa do tempo
  • Widgets de tempo
  • user-avatar
    Iniciar Sessão

    Previsão horária em Zandzhan

    Hoje, 23 Março, Sábado

    Tempo Temperatura Precipitação Vento Pressão Humidade
    00:00 +5°C° 0 mm 1 m/s 613 mmHg 53%
    01:00 +4°C° 0 mm 1 m/s 613 mmHg 53%
    02:00 +4°C° 0 mm 1 m/s 613 mmHg 53%
    03:00 +4°C° 0 mm 1 m/s 613 mmHg 53%
    04:00 +4°C° 0 mm 1 m/s 612 mmHg 53%
    05:00 +3°C° 0 mm 1 m/s 612 mmHg 53%
    06:00 +3°C° 0 mm 1 m/s 612 mmHg 53%
    07:00 +4°C° 0 mm 2 m/s 613 mmHg 49%
    08:00 +5°C° 0 mm 2 m/s 613 mmHg 45%
    09:00 +7°C° 0 mm 3 m/s 614 mmHg 40%
    10:00 +7°C° 0 mm 4 m/s 614 mmHg 38%
    11:00 +8°C° 0 mm 5 m/s 614 mmHg 36%
    12:00 +9°C° 0 mm 6 m/s 614 mmHg 34%
    13:00 +9°C° 0 mm 6 m/s 614 mmHg 32%
    14:00 +10°C° 0 mm 6 m/s 613 mmHg 29%
    15:00 +10°C° 0 mm 7 m/s 613 mmHg 27%
    16:00 +10°C° 0 mm 6 m/s 613 mmHg 29%
    17:00 +9°C° 0 mm 5 m/s 612 mmHg 31%
    18:00 +8°C° 0 mm 4 m/s 612 mmHg 34%
    19:00 +8°C° 0 mm 3 m/s 612 mmHg 37%
    20:00 +8°C° 0 mm 2 m/s 612 mmHg 41%
    21:00 +8°C° 0 mm 1 m/s 612 mmHg 44%
    22:00 +8°C° 0 mm 1 m/s 612 mmHg 45%
    23:00 +7°C° 0 mm 2 m/s 612 mmHg 46%

    Amanhã, 24 Março, Domingo

    Tempo Temperatura Precipitação Vento Pressão Humidade
    00:00 +6°C° 0 mm 2 m/s 612 mmHg 47%
    01:00 +5°C° 0 mm 3 m/s 611 mmHg 51%
    02:00 +4°C° 0 mm 3 m/s 611 mmHg 55%
    03:00 +4°C° 0 mm 4 m/s 611 mmHg 59%
    04:00 +4°C° 0 mm 4 m/s 611 mmHg 64%
    05:00 +3°C° 0 mm 3 m/s 610 mmHg 70%
    06:00 +3°C° 0 mm 3 m/s 610 mmHg 76%
    07:00 +4°C° 0.1 mm 3 m/s 611 mmHg 69%
    08:00 +5°C° 0.1 mm 4 m/s 611 mmHg 63%
    09:00 +6°C° 0.1 mm 5 m/s 611 mmHg 56%
    10:00 +6°C° 1 mm 5 m/s 611 mmHg 61%
    11:00 +6°C° 1 mm 5 m/s 610 mmHg 65%
    12:00 +5°C° 1 mm 5 m/s 610 mmHg 69%
    13:00 +4°C° 1.2 mm 6 m/s 609 mmHg 69%
    14:00 +5°C° 1.2 mm 6 m/s 609 mmHg 69%
    15:00 +5°C° 1.2 mm 7 m/s 608 mmHg 69%
    16:00 +5°C° 1.2 mm 6 m/s 608 mmHg 70%
    17:00 +6°C° 1.2 mm 5 m/s 608 mmHg 71%
    18:00 +6°C° 1.2 mm 4 m/s 608 mmHg 72%
    19:00 +5°C° 0.2 mm 4 m/s 608 mmHg 73%
    20:00 +5°C° 0.2 mm 4 m/s 608 mmHg 73%
    21:00 +5°C° 0.2 mm 4 m/s 608 mmHg 73%
    22:00 +5°C° 0.1 mm 4 m/s 608 mmHg 75%
    23:00 +4°C° 0.1 mm 3 m/s 608 mmHg 76%

    Depois de amanhã, 25 Março, Segunda-feira

    Tempo Temperatura Precipitação Vento Pressão Humidade
    00:00 +4°C° 0.1 mm 3 m/s 608 mmHg 77%
    01:00 +4°C° 0.3 mm 3 m/s 607 mmHg 77%
    02:00 +4°C° 0.3 mm 3 m/s 607 mmHg 77%
    03:00 +5°C° 0.3 mm 2 m/s 607 mmHg 78%
    04:00 +5°C° 0.3 mm 2 m/s 607 mmHg 79%
    05:00 +3°C° 0.3 mm 3 m/s 607 mmHg 81%
    06:00 +3°C° 0.3 mm 3 m/s 607 mmHg 83%
    07:00 +3°C° 0.8 mm 3 m/s 607 mmHg 82%
    08:00 +3°C° 0.8 mm 4 m/s 607 mmHg 81%
    09:00 +3°C° 0.8 mm 4 m/s 607 mmHg 80%
    10:00 +2°C° 2 mm 5 m/s 607 mmHg 82%
    11:00 +2°C° 2 mm 5 m/s 607 mmHg 84%
    12:00 +1°C° 2 mm 6 m/s 606 mmHg 86%
    13:00 +1°C° 0.5 mm 5 m/s 606 mmHg 86%
    14:00 +3°C° 0.5 mm 4 m/s 606 mmHg 86%
    15:00 +3°C° 0.5 mm 3 m/s 606 mmHg 86%
    16:00 +1°C° 0.9 mm 4 m/s 606 mmHg 87%
    17:00 +1°C° 0.9 mm 4 m/s 606 mmHg 87%
    18:00 +1°C° 0.9 mm 4 m/s 606 mmHg 88%
    19:00 0°C° 0.5 mm 4 m/s 607 mmHg 88%
    20:00 0°C° 0.5 mm 4 m/s 607 mmHg 88%
    21:00 +1°C° 0.5 mm 3 m/s 608 mmHg 87%
    22:00 +1°C° 0 mm 3 m/s 608 mmHg 88%
    23:00 +2°C° 0 mm 2 m/s 608 mmHg 89%

    26 Março, Terça-feira

    Tempo Temperatura Precipitação Vento Pressão Humidade
    00:00 +1°C° 0 mm 2 m/s 607 mmHg 90%
    01:00 +1°C° 0 mm 2 m/s 608 mmHg 90%
    02:00 +1°C° 0 mm 2 m/s 608 mmHg 91%
    03:00 +2°C° 0 mm 2 m/s 608 mmHg 92%
    04:00 +1°C° 0 mm 2 m/s 608 mmHg 92%
    05:00 +1°C° 0 mm 2 m/s 608 mmHg 91%
    06:00 +1°C° 0 mm 2 m/s 608 mmHg 91%
    07:00 +2°C° 0 mm 2 m/s 608 mmHg 88%
    08:00 +3°C° 0 mm 2 m/s 609 mmHg 85%
    09:00 +3°C° 0 mm 3 m/s 609 mmHg 82%
    10:00 +3°C° 0.6 mm 3 m/s 609 mmHg 82%
    11:00 +3°C° 0.6 mm 3 m/s 609 mmHg 82%
    12:00 +3°C° 0.6 mm 4 m/s 609 mmHg 82%
    13:00 +4°C° 0.1 mm 4 m/s 608 mmHg 80%
    14:00 +4°C° 0.1 mm 4 m/s 608 mmHg 78%
    15:00 +4°C° 0.1 mm 4 m/s 608 mmHg 77%
    16:00 +4°C° 0.3 mm 4 m/s 608 mmHg 78%
    17:00 +3°C° 0.3 mm 3 m/s 607 mmHg 79%
    18:00 +3°C° 0.3 mm 3 m/s 607 mmHg 80%
    19:00 +2°C° 0.2 mm 3 m/s 608 mmHg 82%
    20:00 +2°C° 0.2 mm 3 m/s 608 mmHg 84%
    21:00 +2°C° 0.2 mm 3 m/s 609 mmHg 85%
    22:00 +2°C° 0 mm 3 m/s 609 mmHg 86%
    23:00 +2°C° 0 mm 3 m/s 609 mmHg 86%

    27 Março, Quarta-feira

    Tempo Temperatura Precipitação Vento Pressão Humidade
    00:00 +2°C° 0 mm 3 m/s 610 mmHg 86%
    01:00 +2°C° 0.1 mm 3 m/s 610 mmHg 85%
    02:00 +1°C° 0.1 mm 4 m/s 610 mmHg 84%
    03:00 +1°C° 0.1 mm 4 m/s 610 mmHg 84%
    04:00 0°C° 0 mm 4 m/s 610 mmHg 86%
    05:00 +1°C° 0 mm 3 m/s 611 mmHg 87%
    06:00 +1°C° 0 mm 3 m/s 611 mmHg 89%
    07:00 +1°C° 0 mm 4 m/s 611 mmHg 83%
    08:00 +2°C° 0 mm 5 m/s 612 mmHg 77%
    09:00 +3°C° 0 mm 5 m/s 613 mmHg 71%
    10:00 +3°C° 0 mm 6 m/s 613 mmHg 67%
    11:00 +4°C° 0 mm 7 m/s 613 mmHg 63%
    12:00 +5°C° 0 mm 7 m/s 613 mmHg 60%
    13:00 +5°C° 0 mm 7 m/s 613 mmHg 58%
    14:00 +6°C° 0 mm 7 m/s 613 mmHg 56%
    15:00 +6°C° 0 mm 7 m/s 613 mmHg 54%
    16:00 +7°C° 0 mm 6 m/s 614 mmHg 56%
    17:00 +5°C° 0 mm 6 m/s 614 mmHg 58%
    18:00 +5°C° 0 mm 5 m/s 614 mmHg 60%
    19:00 +5°C° 0 mm 4 m/s 614 mmHg 64%
    20:00 +4°C° 0 mm 3 m/s 614 mmHg 68%
    21:00 +4°C° 0 mm 2 m/s 614 mmHg 72%
    22:00 +4°C° 0 mm 2 m/s 614 mmHg 74%
    23:00 +4°C° 0 mm 2 m/s 614 mmHg 76%

    28 Março, Quinta-feira

    Tempo Temperatura Precipitação Vento Pressão Humidade
    00:00 +3°C° 0 mm 2 m/s 614 mmHg 77%
    01:00 +3°C° 0 mm 2 m/s 614 mmHg 80%
    02:00 +3°C° 0 mm 2 m/s 613 mmHg 83%
    03:00 +2°C° 0 mm 2 m/s 613 mmHg 86%
    04:00 +2°C° 0 mm 2 m/s 613 mmHg 87%
    05:00 +2°C° 0 mm 2 m/s 614 mmHg 87%
    06:00 +2°C° 0 mm 2 m/s 614 mmHg 88%
    07:00 +2°C° 0 mm 3 m/s 614 mmHg 79%
    08:00 +4°C° 0 mm 4 m/s 615 mmHg 69%
    09:00 +5°C° 0 mm 5 m/s 615 mmHg 60%
    10:00 +5°C° 0 mm 6 m/s 615 mmHg 55%
    11:00 +7°C° 0 mm 6 m/s 615 mmHg 49%
    12:00 +9°C° 0 mm 7 m/s 616 mmHg 44%
    13:00 +9°C° 0.1 mm 7 m/s 615 mmHg 42%
    14:00 +9°C° 0.1 mm 6 m/s 615 mmHg 40%
    15:00 +10°C° 0.1 mm 6 m/s 615 mmHg 38%
    16:00 +9°C° 0 mm 5 m/s 615 mmHg 41%
    17:00 +8°C° 0 mm 4 m/s 614 mmHg 43%
    18:00 +9°C° 0 mm 3 m/s 614 mmHg 45%
    19:00 +8°C° 0 mm 2 m/s 614 mmHg 49%
    20:00 +8°C° 0 mm 1 m/s 614 mmHg 53%
    21:00 +6°C° 0 mm 0 m/s 613 mmHg 58%
    22:00 +6°C° 0.1 mm 0 m/s 613 mmHg 58%
    23:00 +7°C° 0.1 mm 1 m/s 613 mmHg 57%
    Mostrar mais